Regional Weather Roundup
Issued by NWS Austin/San Antonio, TX

Home | Current Version | Previous Version | Text Only | Print | Product List | Glossary On
Versions: 1 2 3 4 5 6 7 8 9 10 11 12 13 14 15 16 17 18 19 20 21 22 23 24 25 26 27 28 29 30 31 32 33 34 35 36 37 38 39 40 41 42 43 44 45 46 47 48 49 50
000
ASUS44 KEWX 140510
RWREWX
SOUTH TEXAS REGIONAL WEATHER ROUNDUP
NATIONAL WEATHER SERVICE AUSTIN/SAN ANTONIO TX
1100 PM CST WED DEC 13 2017

NOTE: "FAIR" INDICATED FEW OR NO CLOUDS BELOW 12,000 FEET WITH NO
SIGNIFICANT WEATHER AND/OR OBSTRUCTIONS TO VISIBILITY.

* - THESE STATIONS ARE NOT NWS OR FAA STATIONS...AND ARE NOT SUBJECT
    TO NWS AND FAA QUALITY CONTROL.

TXZ171-172-183>190-140600-
TEXAS HILL COUNTRY AND EDWARDS PLATEAU

CITY           SKY/WX    TMP DP  RH WIND       PRES   REMARKS
JUNCTION       CLOUDY    45  33  63 W5        29.96S WCI  43
*LLANO         CLOUDY    41  34  75 CALM      29.99S
BURNET         CLOUDY    46  35  65 S3        29.98R
*HORSESHOE BAY CLOUDY    44  36  73 CALM      29.96S
*KERRVILLE     CLOUDY    45  35  69 N3        29.98S
*FREDERICKSBRG CLOUDY    43  34  68 CALM      29.97S
*ROCKSPRINGS   NOT AVBL
*BOERNE STAGE  PTCLDY    52  32  46 SW10      29.96F
*CASTROVILLE   PTCLDY    48  37  66 SW6       29.99F WCI  45
HONDO          CLOUDY    49  39  68 W3        29.98F
*UVALDE        CLOUDY    43  40  87 CALM      29.99S
DEL RIO        CLOUDY    47  39  74 E5        29.97S WCI  45
LAUGHLIN AFB   MOCLDY    43  38  82 E7        29.97F WCI  39
CARRIZO SPRGS  PTCLDY    43  41  93 CALM      29.98F
*EAGLE PASS    CLEAR     45  39  81 SE3       29.98F
$$

TXZ173-191>194-202-209-217>225-228-140600-
CENTRAL AND SOUTH CENTRAL TEXAS

CITY           SKY/WX    TMP DP  RH WIND       PRES   REMARKS
GEORGETOWN     CLOUDY    45  36  70 CALM      29.97S
AUSTIN/BERGSTM CLOUDY    40  36  86 W3        29.97S
AUSTIN/MABRY   CLOUDY    46  37  71 CALM      29.98S
*AUSTIN/EXEC   CLOUDY    45  36  70 CALM      29.97S
*LAGO VISTA    CLOUDY    52  36  54 MISG      29.96S
SAN MARCOS     NOT AVBL
NEW BRAUNFELS  PTCLDY    47  37  68 SW5       29.95S WCI  45
RANDOLPH AFB   MOCLDY    53  37  53 SW7       29.96F
PT SAN ANTONIO PTCLDY    51  38  61 SW3       29.95F
SAN ANTONIO    MOCLDY    54  36  50 SW7       29.97F
STINSON FIELD  CLOUDY    48  39  71 SW5       29.96F WCI  46
*LA GRANGE     PTCLDY    45  40  82 CALM      29.96S
*GIDDINGS      PTCLDY    47  37  67 SW5       29.97F WCI  45
*GONZALES      PTCLDY    49  37  63 SW3       29.97S
$$

TXZ163>164-176>182-195>201-210>213-226-227-235-140600-
SOUTHEAST TEXAS

CITY           SKY/WX    TMP DP  RH WIND       PRES   REMARKS
COLLEGE STN    PTCLDY    46  36  68 S5        29.96F WCI  44
*BRYAN         PTCLDY    46  35  66 S5        29.97S WCI  44
*CALDWELL      PTCLDY    46  36  68 SW9       29.96F WCI  42
*CROCKETT        N/A     39  34  81 CALM      29.97F
*BRENHAM       PTCLDY    49  37  64 CALM      29.98S
HUNTSVILLE     CLOUDY    48  36  63 S8        29.95F WCI  44
CONROE         PTCLDY    40  38  93 CALM      29.97F
HOUSTON BUSH   CLOUDY    48  39  71 SW5       29.98S WCI  46
HOUSTON HOBBY  CLOUDY    47  39  74 S6        29.98S WCI  44
*HOUSTON SW AP CLOUDY    43  38  82 CALM      30.00S
PEARLAND       CLOUDY    48  40  73 CALM      30.00S
HOUSTON HOOKS  CLOUDY    44  39  82 SW5       29.98S WCI  42
ELLINGTON FLD  CLOUDY    50  37  62 SW5       30.00S WCI  48
SUGAR LAND     CLOUDY    49  38  65 SW5       29.99S WCI  47
*HOUSTON EXEC  NOT AVBL
*CLEVELAND MUN CLOUDY    38  37  94 CALM      29.97F
*WHARTON       CLOUDY    48  41  76 S6        30.00F WCI  46
*COLUMBUS      FAIR      47  40  78 CALM      30.00R
*EAGLE LAKE    PTCLDY    50  42  75 SW5       29.98S WCI  48
$$

TXZ214>216-236>238-140600-
THE UPPER TEXAS COAST

CITY           SKY/WX    TMP DP  RH WIND       PRES   REMARKS
*ORANGE        CLOUDY    43  43  97 CALM      30.00S
PORT ARTHUR    CLOUDY    45  41  86 SW3       29.98F
GALVESTON      CLOUDY    53  45  74 SW5       30.00S
ANGLETON       PTCLDY    45  40  82 SW5       30.00F WCI  43
*BAY CITY      CLOUDY    47  41  79 CALM      30.00S
PALACIOS       CLOUDY    54  51  90 S3        29.99F
$$

TXZ229>234-239>247-140600-
TEXAS COASTAL BEND AND RIO GRANDE PLAINS

CITY           SKY/WX    TMP DP  RH WIND       PRES   REMARKS
VICTORIA       CLOUDY    51  43  74 S6        29.99F
*BEEVILLE      CLOUDY    53  44  73 CALM      29.99F
ROCKPORT       PTCLDY    53  48  83 SW3       30.00S
*PORT ARANSAS  NOT AVBL
*PORT LAVACA   CLOUDY    51  45  80 S3        30.00F
*INGLESIDE     PTCLDY    53  49  86 CALM      30.00S
CORPUS CHRISTI CLOUDY    53  50  89 S3        29.99S
CORPUS NAS     MOCLDY    58  50  75 SW6       30.00S
*ROBSTOWN      PTCLDY    52  49  87 S6        29.99F
ALICE          PTCLDY    51  41  68 SW5       29.99F
KINGSVILLE NAS CLOUDY    52  48  86 CALM      30.00F
COTULLA        PTCLDY    52  42  69 CALM      29.99F
*FAITH RANCH   CLEAR     48  41  76 SE5       29.98F WCI  46
LAREDO         PTCLDY    53  41  63 MISG      29.98F
$$

TXZ248>255-140600-
DEEP SOUTH TEXAS

CITY           SKY/WX    TMP DP  RH WIND       PRES   REMARKS
BROWNSVILLE    PTCLDY    59  54  83 CALM      30.01F
PORT ISABEL    PTCLDY    60  55  83 CALM      30.00F
*SOUTH PADRE   NOT AVBL
HARLINGEN      CLOUDY    53  51  93 W6        30.03R
*HEBBRONVILLE  CLOUDY    52  37  57 CALM      30.00F
MCALLEN        CLOUDY    56  49  77 CALM      30.03R
*WESLACO       CLOUDY    56  49  78 NW5       30.03R
FALFURRIAS     PTCLDY    53  41  63 S5        30.00F
EDINBURG       PTCLDY    54  47  77 S6        30.02F
*ZAPATA        MOCLDY    54  41  61 CALM      29.99S
$$

TXZ213>215-236>238-242>244-246-247-251-254-255-140600-
CMAN STATIONS

STATION/POSITION TIME  TEMP    WIND        PRES    WAVE
                       AIR SEA DIR/SP/G            HT/PER
                 (UTC) (F)     (DEG/KT/KT) (MB)    (FT/S)
SABINE PASS      0442   51 62  250/  2/  3 1016.5
SEA RIM ST PARK  0500   52     270/  8/  8 1015.9
NORTH JETTY/GLS  0442      60  240/  8/  9 1015.2
EAGLE POINT      0442   52 55  250/  2/  3 1015.5
MORGANS POINT    0442   53 57  200/  3/  4 1015.2
PORT O`CONNOR    0442   56 61  160/  1/  2 1015.3
MALAQUITE BEACH  0442   60 63  180/  7/  9 1015.0
BAFFIN BAY       0436   56 57  210/  6/  7 1016.1
PORT ISABEL      0436   62 62  150/  3/  4 1015.5
$$



USA.gov is the U.S. government's official web portal to all federal, state and local government web resources and services.